TimeAKST,TemperatureF,Dew PointF,Humidity,Sea Level PressureIn,VisibilityMPH,Wind Direction,Wind SpeedMPH,Gust SpeedMPH,PrecipitationIn,Events,Conditions,WindDirDegrees,DateUTC
12:53 AM,12.0,-6.0,44,29.55,10.0,NNE,16.1,-,N/A,,Mostly Cloudy,20,2013-11-22 09:53:00
1:53 AM,12.9,-5.1,45,29.53,10.0,NNW,8.1,18.4,N/A,,Overcast,340,2013-11-22 10:53:00
2:53 AM,12.9,-2.0,51,29.49,10.0,NE,17.3,-,N/A,,Overcast,40,2013-11-22 11:53:00
3:53 AM,15.1,1.0,54,29.46,7.0,NE,27.6,38.0,0.00,Snow,Light Snow,40,2013-11-22 12:53:00
4:53 AM,15.1,1.0,54,29.43,4.0,NE,33.4,43.7,0.00,Snow,Light Snow,40,2013-11-22 13:53:00
5:53 AM,15.1,-0.9,49,29.42,10.0,NE,20.7,32.2,0.00,,Overcast,40,2013-11-22 14:53:00
6:53 AM,15.1,-0.0,51,29.40,10.0,NE,19.6,27.6,0.00,,Overcast,40,2013-11-22 15:53:00
7:53 AM,14.0,-0.9,52,29.38,10.0,NNE,18.4,26.5,N/A,,Overcast,30,2013-11-22 16:53:00
8:53 AM,14.0,3.9,64,29.37,10.0,NNE,10.4,-,0.00,,Overcast,30,2013-11-22 17:53:00
9:53 AM,12.9,7.0,77,29.35,4.0,NNE,11.5,-,0.00,Snow,Light Snow,20,2013-11-22 18:53:00
10:02 AM,12.2,6.8,79,29.34,2.0,North,12.7,-,0.00,Snow,Light Snow,10,2013-11-22 19:02:00
10:34 AM,14.0,8.6,79,29.33,4.0,NE,9.2,-,0.01,Snow,Light Snow,40,2013-11-22 19:34:00
10:53 AM,14.0,7.0,74,29.34,9.0,NE,11.5,-,0.01,,Overcast,40,2013-11-22 19:53:00
11:53 AM,14.0,3.9,64,29.32,7.0,NE,19.6,24.2,0.00,Snow,Low Drifting Snow,50,2013-11-22 20:53:00
12:23 PM,12.2,5.0,73,29.31,2.0,NE,17.3,-,0.00,Snow,Light Snow,40,2013-11-22 21:23:00
12:51 PM,12.2,5.0,73,29.31,3.0,NE,19.6,25.3,0.00,Snow,Light Snow,40,2013-11-22 21:51:00
12:53 PM,12.9,5.0,71,29.31,3.0,NE,16.1,25.3,0.00,Snow,Light Snow,40,2013-11-22 21:53:00
1:53 PM,12.9,6.1,74,29.31,4.0,ENE,9.2,-,0.00,Snow,Light Snow,60,2013-11-22 22:53:00
2:15 PM,12.2,6.8,79,29.30,2.0,NE,8.1,-,0.00,Snow,Light Snow,40,2013-11-22 23:15:00
2:31 PM,12.2,6.8,79,29.30,1.0,ENE,6.9,-,0.00,Snow,Light Snow,60,2013-11-22 23:31:00
2:38 PM,12.2,6.8,79,29.30,3.0,ENE,4.6,-,0.00,Snow,Light Snow,60,2013-11-22 23:38:00
2:53 PM,12.9,7.0,77,29.30,3.0,NE,5.8,-,0.00,Snow,Light Snow,40,2013-11-22 23:53:00
3:44 PM,12.2,6.8,79,29.30,2.0,ENE,8.1,-,0.00,Snow,Light Snow,60,2013-11-23 00:44:00
3:53 PM,12.9,7.0,77,29.30,2.0,ENE,6.9,-,0.00,Snow,Light Snow,70,2013-11-23 00:53:00
4:04 PM,14.0,6.8,73,29.29,3.0,ENE,6.9,-,0.00,Snow,Light Snow,60,2013-11-23 01:04:00
4:53 PM,12.9,7.0,77,29.30,4.0,ENE,8.1,-,0.00,,Haze,60,2013-11-23 01:53:00
5:53 PM,12.9,7.0,77,29.31,10.0,NNE,6.9,-,0.00,,Overcast,30,2013-11-23 02:53:00
6:53 PM,12.9,7.0,77,29.31,10.0,NE,8.1,-,N/A,,Overcast,50,2013-11-23 03:53:00
7:53 PM,14.0,7.0,74,29.32,10.0,NNE,6.9,-,N/A,,Overcast,30,2013-11-23 04:53:00
8:53 PM,14.0,7.0,74,29.33,10.0,North,8.1,-,N/A,,Overcast,10,2013-11-23 05:53:00
9:53 PM,14.0,8.1,77,29.33,10.0,North,6.9,-,N/A,,Overcast,350,2013-11-23 06:53:00
10:53 PM,14.0,9.0,80,29.34,10.0,Calm,Calm,-,0.01,,Overcast,0,2013-11-23 07:53:00
11:51 PM,14.0,8.6,79,29.33,2.5,NNW,3.5,-,0.00,Snow,Light Snow,330,2013-11-23 08:51:00
11:53 PM,14.0,9.0,80,29.34,2.5,NNW,4.6,-,0.00,Snow,Light Snow,330,2013-11-23 08:53:00